Location: Prairie Dale
(45.6972°N, 104.5033°W)
Time: 07:52:11
(UTC+00:00)

Envisat - Pass Details

Date: 27 January 2022
Orbit: 764 x 765 km, 98.2° (Epoch: 16 May)

Event Time Altitude Azimuth Distance (km) Brightness Sun altitude
Rises 12:01:09 0° 12° (NNE) 3,242 6.4 -25.1°
Reaches altitude 10° 12:03:28 10° 13° (NNE) 2,311 5.6 -24.7°
Maximum altitude 12:08:34 86° 285° (WNW) 774 2.8 -23.8°
Drops below altitude 10° 12:13:39 10° 197° (SSW) 2,296 5.3 -22.9°
Sets 12:15:56 0° 197° (SSW) 3,218 6.1 -22.5°
